Waarnemingen

Advertentie
Mijn weer
Quimper, Frankrijk (7201): temperatuur & dauwpunt: 21.04.2018 10:00:00 - 27.04.2018 10:00:00 (CEST)Quimper, Frankrijk (7201): temperatuur 5cm: 21.04.2018 10:00:00 - 27.04.2018 10:00:00 (CEST)Quimper, Frankrijk (7201): temperatuur -20cm: 21.04.2018 10:00:00 - 27.04.2018 10:00:00 (CEST)Quimper, Frankrijk (7201): windsnelheid & windstoten: 21.04.2018 10:00:00 - 27.04.2018 10:00:00 (CEST)Quimper, Frankrijk (7201): windrichting: 21.04.2018 10:00:00 - 27.04.2018 10:00:00 (CEST)Quimper, Frankrijk (7201): luchtdruk: 21.04.2018 10:00:00 - 27.04.2018 10:00:00 (CEST)Quimper, Frankrijk (7201): zicht: 21.04.2018 10:00:00 - 27.04.2018 10:00:00 (CEST)Quimper, Frankrijk (7201): Zonneschijnduur: 21.04.2018 10:00:00 - 27.04.2018 10:00:00 (CEST)Quimper, Frankrijk (7201): neerslag: 21.04.2018 10:00:00 - 27.04.2018 10:00:00 (CEST)
Datum & Tijd tt [°C] td [°C] tt 5cm [°C] tt -20cm [°C] ff [km/u] ff [kn] fx [km/u] fx [kn] dd ppp [hPa] vv [km] sd [min] rr [mm]
27.04.2018 10:00:00 10,6 6,7 9,7 13,0 37 20 69 38 ZZW 1002,6 12 23 0,0
27.04.2018 09:00:00 10,5 8,3 9,1 13,1 25 14 49 26 ZZW 1003,5 20 15 2,7
27.04.2018 08:00:00 10,7 9,1 9,8 13,2 29 16 52 28 Z 1003,2 4,4 0 0,6
27.04.2018 07:00:00 10,4 8,5 9,1 13,2 23 12 45 24 Z 1005,3 20 0 1,0
27.04.2018 06:00:00 11,1 7,0 10,5 13,3 25 13 43 23 Z 1007,2 38 0 0,0
27.04.2018 05:00:00 10,9 6,8 10,4 13,3 18 10 33 18 Z 1008,9 50 0 0,0
27.04.2018 04:00:00 10,8 6,7 10,0 13,4 19 10 36 20 Z 1009,8 60 0 0,0
27.04.2018 03:00:00 10,4 6,7 9,9 13,4 19 11 34 18 Z 1011,1 60 0 0,0
27.04.2018 02:00:00 10,1 6,8 9,1 13,5 14 7 23 13 ZZO 1012,4 60 0 0,0
27.04.2018 01:00:00 9,5 6,2 9,0 13,5 11 6 16 9 ZZO 1013,7 60 0 0,0
27.04.2018 00:00:00 9,3 6,0 8,5 13,5 6 3 12 6 ZO 1015,2 60 0 0,0
26.04.2018 23:00:00 9,3 6,2 8,5 13,5 7 4 10 5 ZO 1016,3 49 0 0,0
26.04.2018 22:00:00 9,4 5,8 8,6 13,5 5 3 11 6 Z 1017,2 58 0 0,0
26.04.2018 21:00:00 10,6 6,0 10,1 13,4 8 4 18 10 ZZW 1017,8 59 0 0,0
26.04.2018 20:00:00 11,5 5,6 11,9 13,3 11 6 24 13 ZW 1018,5 54 7 0,0
26.04.2018 19:00:00 12,6 5,0 13,6 13,2 14 8 25 13 ZW 1019,2 51 39 0,0
26.04.2018 18:00:00 13,9 4,5 15,3 13,0 13 7 26 14 ZW 1019,4 39 52 0,0
26.04.2018 17:00:00 13,4 6,0 14,3 12,9 18 10 29 16 ZW 1020,5 20 50 0,0
26.04.2018 16:00:00 13,5 5,6 14,1 12,8 20 11 31 17 WZW 1021,2 19 46 0,0
26.04.2018 15:00:00 13,9 5,3 14,6 12,7 18 10 32 17 WZW 1021,6 19 40 0,0
26.04.2018 14:00:00 14,1 4,9 16,2 12,6 14 8 30 16 WZW 1022,0 19 57 0,0
26.04.2018 13:00:00 13,0 4,2 14,3 12,6 18 10 29 16 W 1022,6 20 51 0,0
26.04.2018 12:00:00 13,2 7,0 11,6 12,7 16 9 28 15 ZW 1022,8 43 25 0,0
26.04.2018 11:00:00 12,0 5,6 12,6 12,8 14 8 28 15 W 1023,1 20 28 0,0
26.04.2018 10:00:00 11,7 6,8 12,8 12,8 13 7 23 12 W 1023,2 19 60 0,2
26.04.2018 09:00:00 9,6 7,4 7,5 12,9 5 3 11 6 W 1023,2 38 58 0,0
26.04.2018 08:00:00 6,1 5,1 3,6 13,1 7 4 12 6 WNW 1022,8 34 16 0,0
26.04.2018 07:00:00 5,4 4,2 3,1 13,2 8 4 10 6 W 1023,1 34 0 0,0
26.04.2018 06:00:00 5,3 3,8 3,7 13,3 8 4 12 7 W 1023,1 53 0 0,0
26.04.2018 05:00:00 6,0 4,6 4,5 13,4 8 5 14 8 W 1023,0 55 0 0,0
26.04.2018 04:00:00 6,8 4,8 5,1 13,4 7 4 19 10 W 1022,7 53 0 0,0
26.04.2018 03:00:00 8,8 6,8 7,5 13,5 10 6 21 11 W 1022,9 41 0 0,2
26.04.2018 02:00:00 8,4 6,5 7,4 13,6 9 5 20 11 W 1023,2 17 0 0,0
26.04.2018 01:00:00 8,2 6,3 6,8 13,7 7 4 17 9 W 1023,2 17 0 0,0
26.04.2018 00:00:00 7,9 5,9 7,0 13,7 11 6 18 10 W 1023,3 18 0 0,0
25.04.2018 23:00:00 8,5 6,1 7,8 13,8 11 6 21 11 W 1023,3 18 0 0,0
25.04.2018 22:00:00 8,8 6,1 7,7 13,8 11 6 24 13 W 1022,6 35 0 0,0
25.04.2018 21:00:00 10,4 6,0 10,0 13,8 22 12 36 20 WNW 1022,2 45 42 0,0
25.04.2018 20:00:00 11,8 5,2 12,7 13,7 22 12 42 23 WNW 1021,5 21 60 0,0
25.04.2018 19:00:00 12,1 5,9 11,4 13,7 19 10 48 26 WNW 1021,4 20 24 0,0
25.04.2018 18:00:00 12,3 6,3 11,9 13,7 26 14 45 25 WNW 1021,2 51 7 0,0
25.04.2018 17:00:00 13,4 7,2 13,4 13,6 28 15 51 27 W 1021,0 18 23 0,0
25.04.2018 16:00:00 13,3 7,3 13,8 13,6 28 15 50 27 W 1021,1 19 29 0,0
25.04.2018 15:00:00 13,4 7,6 11,6 13,5 27 15 45 24 W 1021,0 60 6 0,0
25.04.2018 14:00:00 12,3 6,6 12,6 13,5 23 12 39 21 WNW 1021,0 52 17 0,0
25.04.2018 13:00:00 14,0 8,8 11,7 13,5 26 14 40 22 W 1020,6 49 40 0,0
25.04.2018 12:00:00 12,3 9,1 9,8 13,5 18 10 32 18 W 1020,3 51 10 0,4
25.04.2018 11:00:00 11,8 7,9 11,1 13,6 17 9 34 18 W 1020,2 54 26 0,0
25.04.2018 10:00:00 11,4 8,3 10,7 13,6 16 9 27 14 WNW 1019,8 52 41 0,0
25.04.2018 09:00:00 10,5 8,4 9,4 13,7 8 4 16 9 WNW 1019,1 48 48 0,0
25.04.2018 08:00:00 9,2 7,8 8,1 13,8 10 5 21 11 NW 1018,6 42 7 0,0
25.04.2018 07:00:00 9,2 8,1 8,5 13,8 13 7 23 12 NNW 1017,9 51 0 0,0
25.04.2018 06:00:00 9,4 8,5 8,5 13,8 14 7 29 16 NW 1017,4 43 0 0,0
25.04.2018 05:00:00 9,7 9,1 9,0 13,9 12 7 30 16 N 1016,7 60 0 0,0
25.04.2018 04:00:00 12,0 11,7 11,8 13,9 13 7 31 17 W 1016,3 3,5 0 0,6
25.04.2018 03:00:00 12,0 11,7 11,7 13,9 18 10 34 19 W 1016,5 2,5 0 0,4
25.04.2018 02:00:00 12,0 11,5 11,5 14,0 18 10 39 21 WZW 1016,5 2,6 0 0,4
25.04.2018 01:00:00 11,8 11,3 11,5 14,0 17 9 35 19 WZW 1016,8 2,9 0 0,4
25.04.2018 00:00:00 12,0 11,5 11,5 14,0 23 13 40 21 WZW 1017,1 20 0 0,2
24.04.2018 23:00:00 12,0 11,5 11,6 14,0 21 11 40 21 WZW 1017,1 10 0 0,0
24.04.2018 22:00:00 11,8 11,3 11,2 14,0 19 11 32 18 WZW 1017,3 3,8 0 0,2
24.04.2018 21:00:00 11,5 10,6 11,0 14,0 17 9 28 15 WZW 1017,2 1,7 0 0,4
24.04.2018 20:00:00 11,9 9,6 11,3 14,0 20 11 32 17 WZW 1017,4 4,5 0 0,0
24.04.2018 19:00:00 12,9 9,3 13,6 13,9 21 11 35 19 ZW 1017,7 54 3 0,0
24.04.2018 18:00:00 13,5 9,3 14,5 13,8 25 13 39 21 ZW 1017,9 60 6 0,0
24.04.2018 17:00:00 13,6 9,0 14,6 13,8 26 14 35 19 WZW 1018,5 60 6 0,0
24.04.2018 16:00:00 14,4 9,6 15,5 13,7 22 12 32 18 ZW 1018,9 59 24 0,0
24.04.2018 15:00:00 13,7 9,1 14,5 13,7 21 12 32 17 ZW 1019,7 39 3 0,0
24.04.2018 14:00:00 13,9 9,3 15,1 13,6 17 9 29 15 ZW 1020,3 44 8 0,0
24.04.2018 13:00:00 14,2 9,4 15,3 13,6 19 10 31 17 ZW 1020,3 20 9 0,0
24.04.2018 12:00:00 13,8 9,0 14,7 13,6 16 8 24 13 ZZW 1020,5 58 1 0,0
24.04.2018 11:00:00 12,9 9,3 14,1 13,7 9 5 21 11 WZW 1020,7 48 10 0,0
24.04.2018 10:00:00 12,5 9,7 12,2 13,7 12 6 19 11 WZW 1021,0 20 10 0,0
24.04.2018 09:00:00 10,9 9,5 9,7 13,8 8 4 13 7 ZZW 1021,0 18 0 0,0
24.04.2018 08:00:00 9,2 8,0 8,6 13,9 6 3 10 5 Z 1020,7 20 0 0,0
24.04.2018 07:00:00 8,5 7,1 8,3 14,0 0 0 4 2 N 1020,8 27 0 0,0
24.04.2018 06:00:00 8,3 7,2 7,9 14,1 0 0 3 2 N 1020,9 28 0 0,0
24.04.2018 05:00:00 8,2 7,1 7,1 14,2 2 1 6 3 Z 1020,9 29 0 0,0
24.04.2018 04:00:00 7,6 6,5 5,0 14,3 6 3 9 5 ZZW 1021,2 31 0 0,0
24.04.2018 03:00:00 6,8 5,1 4,7 14,4 3 2 4 2 WZW 1022,0 34 0 0,0
24.04.2018 02:00:00 6,9 4,7 4,9 14,5 3 1 7 4 WNW 1022,3 45 0 0,0
24.04.2018 01:00:00 7,1 4,7 5,5 14,6 4 2 6 3 WNW 1022,8 58 0 0,0
24.04.2018 00:00:00 7,5 4,6 5,9 14,7 3 2 4 2 WNW 1022,9 58 0 0,0
23.04.2018 23:00:00 8,4 5,0 6,8 14,7 0 0 8 4 N 1022,8 57 0 0,0
23.04.2018 22:00:00 9,1 5,1 7,4 14,7 5 3 15 8 W 1022,7 60 0 0,0
23.04.2018 21:00:00 11,4 5,9 11,3 14,6 10 6 23 12 WNW 1022,0 57 17 0,0
23.04.2018 20:00:00 12,8 5,7 13,6 14,6 16 8 29 15 W 1021,9 51 58 0,0
23.04.2018 19:00:00 13,7 5,3 15,1 14,5 19 10 29 16 W 1021,7 60 58 0,0
23.04.2018 18:00:00 14,2 6,0 15,1 14,4 15 8 29 15 W 1021,6 18 50 0,0
23.04.2018 17:00:00 14,6 5,9 15,3 14,3 16 8 31 17 W 1021,7 20 51 0,0
23.04.2018 16:00:00 14,3 6,9 16,2 14,3 19 10 36 19 W 1022,1 20 41 0,0
23.04.2018 15:00:00 14,3 5,9 15,4 14,3 13 7 27 14 WNW 1022,4 18 7 0,0
23.04.2018 14:00:00 13,4 6,3 15,1 14,3 13 7 25 14 WNW 1022,6 57 3 0,0
23.04.2018 13:00:00 13,2 5,4 14,5 14,3 13 7 25 14 WNW 1022,6 54 0 0,0
23.04.2018 12:00:00 12,4 6,2 12,6 14,3 13 7 24 13 NW 1022,4 54 0 0,0
23.04.2018 11:00:00 12,0 7,5 12,3 14,4 7 4 17 9 NW 1022,0 59 3 0,0
23.04.2018 10:00:00 12,5 8,6 11,1 14,5 6 3 14 8 N 1021,5 55 27 0,0
23.04.2018 09:00:00 10,2 8,6 10,5 14,6 5 3 9 5 N 1021,5 45 15 0,0
23.04.2018 08:00:00 9,1 7,9 6,4 14,7 7 4 10 6 NNW 1020,6 40 24 0,0
23.04.2018 07:00:00 8,2 6,3 6,6 14,7 8 4 16 9 NNW 1020,3 60 0 0,0
23.04.2018 06:00:00 10,2 7,4 9,7 14,8 12 7 20 11 NNW 1019,7 60 0 0,0
23.04.2018 05:00:00 10,5 8,1 10,2 14,9 9 5 21 11 NNW 1019,3 60 0 0,0
23.04.2018 04:00:00 10,7 8,3 10,6 15,0 16 8 31 17 NNW 1019,2 60 0 0,0
23.04.2018 03:00:00 11,3 10,0 10,4 15,1 17 9 29 15 NNW 1019,1 19 0 0,0
23.04.2018 02:00:00 11,0 9,7 10,5 15,1 11 6 18 10 NNW 1018,5 15 0 0,0
23.04.2018 01:00:00 11,3 10,2 10,6 15,2 8 4 13 7 WNW 1018,4 14 0 0,0
23.04.2018 00:00:00 11,1 9,7 10,4 15,2 9 5 18 10 WNW 1018,0 16 0 0,0
22.04.2018 23:00:00 11,7 10,1 10,8 15,2 13 7 20 11 NW 1017,7 31 0 0,0
22.04.2018 22:00:00 12,1 10,3 11,5 15,2 11 6 22 12 W 1016,8 47 0 0,0
22.04.2018 21:00:00 13,4 10,2 13,2 15,2 13 7 23 13 W 1015,9 60 4 0,0
22.04.2018 20:00:00 14,6 9,8 14,5 15,1 11 6 23 13 W 1015,4 60 48 0,0
22.04.2018 19:00:00 15,2 8,4 15,7 15,0 16 8 23 12 NW 1014,8 20 17 0,0
22.04.2018 18:00:00 14,8 6,4 15,4 14,8 13 7 30 16 NW 1014,3 59 19 0,0
22.04.2018 17:00:00 16,4 7,3 17,5 14,7 18 10 33 18 NW 1014,4 52 53 0,0
22.04.2018 16:00:00 18,4 9,7 20,1 14,6 18 10 26 14 W 1014,0 20 46 0,0
22.04.2018 15:00:00 18,1 10,7 20,6 14,5 15 8 24 13 NW 1013,5 20 55 0,0
22.04.2018 14:00:00 17,5 12,0 20,0 14,5 14 7 22 12 WNW 1013,5 18 29 0,0
22.04.2018 13:00:00 17,8 11,1 20,3 14,4 7 4 19 11 NW 1013,1 19 45 0,0
22.04.2018 12:00:00 17,2 12,9 17,9 14,4 8 4 16 9 W 1013,1 10 60 0,0
22.04.2018 11:00:00 15,0 13,4 15,0 14,5 12 7 23 12 W 1013,3 11 60 0,0
22.04.2018 10:00:00 13,4 13,2 12,6 14,6 13 7 20 11 W 1013,2 6 20 0,0
22.04.2018 09:00:00 12,2 12,0 11,4 14,8 12 7 18 10 WZW 1013,1 0,1 0 0,0
22.04.2018 08:00:00 11,5 11,2 9,0 14,9 9 5 13 7 ZW 1012,6 0,1 0 0,0
22.04.2018 07:00:00 9,2 8,7 6,2 15,0 0 0 6 3 N 1012,4 1,6 0 0,2
22.04.2018 06:00:00 9,6 9,1 6,3 15,2 0 0 9 5 N 1012,4 0,6 0 0,0
22.04.2018 05:00:00 9,8 9,3 6,8 15,3 0 0 8 4 N 1012,7 3,3 0 0,0
22.04.2018 04:00:00 9,9 9,3 6,7 15,4 4 2 7 4 Z 1013,1 1,8 0 0,0
22.04.2018 03:00:00 11,2 10,6 7,7 15,5 4 2 7 4 Z 1013,3 6 0 0,0
22.04.2018 02:00:00 11,3 10,4 7,5 15,6 5 3 9 5 O 1013,8 8 0 0,0
22.04.2018 01:00:00 11,2 9,8 9,5 15,6 5 3 10 5 W 1014,5 10 0 0,0
22.04.2018 00:00:00 12,8 11,0 11,8 15,6 7 4 13 7 ZZO 1014,6 15 0 0,0
21.04.2018 23:00:00 13,1 11,0 11,7 15,7 7 4 10 6 ZZO 1014,9 19 0 0,0
21.04.2018 22:00:00 14,1 10,9 13,1 15,6 5 3 14 8 ZO 1014,8 20 0 0,0
21.04.2018 21:00:00 15,6 10,8 15,0 15,5 7 4 19 10 ZZO 1014,9 31 25 0,0
21.04.2018 20:00:00 17,4 10,7 19,3 15,3 12 7 25 14 ZZO 1015,0 34 60 0,0
21.04.2018 19:00:00 19,0 11,8 21,6 15,1 16 9 29 16 ZZO 1015,2 60 60 0,0
21.04.2018 18:00:00 21,2 11,5 23,1 14,9 18 10 29 15 ZZO 1015,3 20 60 0,0
21.04.2018 17:00:00 20,5 13,5 23,4 14,7 17 9 31 17 Z 1015,7 20 60 0,0
21.04.2018 16:00:00 23,3 13,7 25,4 14,5 18 10 26 14 ZZO 1016,0 19 58 0,0
21.04.2018 15:00:00 24,3 13,5 25,9 14,4 10 5 19 11 ZZO 1016,3 19 60 0,0
21.04.2018 14:00:00 23,5 14,8 25,6 14,3 13 7 20 11 ZZO 1016,7 20 60 0,0
21.04.2018 13:00:00 22,8 14,4 24,1 14,2 12 7 20 11 ZZO 1017,3 20 60 0,0
21.04.2018 12:00:00 21,3 13,2 23,8 14,3 14 8 24 13 ZO 1017,8 20 60 0,0
21.04.2018 11:00:00 21,1 13,0 22,2 14,3 14 8 24 13 ZZO 1017,9 37 60 0,0
21.04.2018 10:00:00 19,7 13,2 20,3 14,4 9 5 16 9 OZO 1018,0 19 60 0,0

tt = temperatuur
td = dauwpunt
tt 5cm = temperatuur 5cm
tt -20cm = temperatuur -20cm
ff = windsnelheid
fx = windstoten
dd = windrichting
ppp = luchtdruk
vv = zicht
sd = Zonneschijnduur
rr = neerslag

Weerstations in de omgeving